Flag for Switzerland Weather past 2 weeks in Pratteln, Basel-Land, Switzerland

57 °F

Partly sunny.

Feels Like: 57 °F
Forecast: 42 / 57 °F
Wind: No wind

Location: Bale-Mulhouse

Current Time: Oct 10, 2015 at 6:27:54 PM

Latest Report: Oct 10, 2015 at 6:00 PM

Visibility: N/A

Pressure: 29.92 "Hg

Humidity: 77%

Dew point: 50 °F

Location of PrattelnLocation

Historic Weather in Pratteln — Graph


Pratteln temperature yesterday

Maximum temperature yesterday: 63 °F (at 4:00 PM)
Minimum temperature yesterday: 48 °F (at 2:30 AM)
Average temperature yesterday: 53 °F

Past Weeks' High & Low Weather Summary

High72 °F (Oct 3, 4:00 PM)100% (Sep 26, 2:30 AM)30.45 "Hg (Sep 26, 2:30 AM)
Low36 °F (Sep 30, 7:30 AM)37% (Sep 28, 3:00 PM)29.71 "Hg (Oct 6, 9:00 AM)
Average55 °F77%30.13 "Hg
* Reported Sep 25 4:00 PM — Oct 10 4:30 PM, Pratteln, Weather by CustomWeather, © 2015

Note: Actual official high and low records may vary slightly from our data, if they occured in-between our weather recording intervals... More about our weather records


Pratteln weather history for previous 24 hours

Time TempWeatherWind HumidityBarometerVisibility
4:30 PM
Sat, Oct 10
57 °FPartly sunny.5 mph77%29.92 "HgN/A
4:00 PM59 °FPartly sunny.6 mph77%29.92 "HgN/A
3:30 PM59 °FPartly sunny.5 mph77%29.92 "HgN/A
3:00 PM57 °FPartly sunny.6 mph77%29.92 "HgN/A
2:30 PM57 °FPartly sunny.6 mph77%29.95 "HgN/A
2:00 PM55 °FMostly cloudy.5 mph82%29.95 "Hg6 mi
1:30 PM54 °FMostly cloudy.3 mph88%29.98 "Hg6 mi
1:00 PM54 °FMostly cloudy.7 mph88%29.98 "Hg5 mi
12:30 PM52 °FPartly sunny.7 mph94%29.98 "Hg4 mi
12:00 PM50 °FFog.7 mph100%29.98 "Hg1 mi
11:30 AM50 °FFog.7 mph100%29.98 "Hg1 mi
11:00 AM50 °FFog.6 mph94%30.01 "Hg1 mi
10:30 AM50 °FFog.5 mph94%30.01 "Hg1 mi
10:00 AM48 °FFog.5 mph100%30.01 "Hg1 mi
9:30 AM48 °FFog.3 mph100%30.01 "Hg1 mi
9:00 AM50 °FFog.5 mph94%30.01 "Hg1 mi
8:30 AM50 °FFog.5 mph94%30.01 "Hg1 mi
8:00 AM50 °FFog.3 mph100%30.01 "Hg1 mi
7:30 AM50 °FFog.5 mph94%30.01 "Hg1 mi
7:00 AM50 °FFog.3 mph94%30.01 "Hg1 mi
6:30 AM50 °FFog.3 mph94%30.01 "Hg1 mi
6:00 AM50 °FFog.2 mph94%30.01 "Hg1 mi
5:30 AM50 °FFog.2 mph94%30.01 "Hg1 mi
5:00 AM50 °FFog.2 mph94%30.01 "Hg1 mi
4:30 AM48 °FCool.1 mph100%30.04 "Hg2 mi
4:00 AM48 °FLow clouds.1 mph100%30.04 "Hg4 mi
3:30 AM48 °FLow clouds.No wind100%30.04 "Hg5 mi
3:00 AM46 °FPassing clouds.1 mph100%30.04 "Hg5 mi
2:30 AM45 °FFog.3 mph100%30.04 "Hg3 mi
2:00 AM46 °FFog.5 mph100%30.04 "Hg3 mi
1:30 AM46 °FClear.6 mph100%30.04 "Hg4 mi
1:00 AM46 °FClear.6 mph100%30.04 "Hg4 mi
12:30 AM46 °FClear.5 mph93%30.04 "Hg4 mi
12:00 AM48 °FPassing clouds.5 mph94%30.04 "HgN/A
11:00 PM
Fri, Oct 9
52 °FPassing clouds.5 mph94%30.07 "HgN/A
10:30 PM50 °FPassing clouds.6 mph100%30.07 "HgN/A
10:00 PM50 °FPassing clouds.5 mph94%30.07 "HgN/A
9:30 PM52 °FPassing clouds.6 mph88%30.07 "HgN/A
9:00 PM52 °FPassing clouds.3 mph94%30.07 "HgN/A
8:30 PM52 °FPassing clouds.5 mph88%30.04 "HgN/A
8:00 PM54 °FPassing clouds.5 mph82%30.04 "HgN/A
7:30 PM55 °FScattered clouds.5 mph77%30.04 "HgN/A
7:00 PM59 °FPartly sunny.7 mph72%30.04 "HgN/A
6:30 PM59 °FPartly sunny.6 mph72%30.07 "HgN/A
6:00 PM61 °FPartly sunny.7 mph68%30.07 "HgN/A
Weather by CustomWeather, © 2015

See weather overviewHow to use our weather pages